This is the latest recevied weather packets stored in our database for station/object WA6OOO. If no packets are shown the sender has not sent any weather packets the latest 10 day(s).
| Time | Temp. | Humidity | Pressure | Rain* | Wind** | Luminosity | Snow |
|---|---|---|---|---|---|---|---|
| 1777938643 | 17.78° C | 66% | 1017.8 hPa | 0 mm | - | 215 W/m² | - |
| 1777938340 | 17.22° C | 67% | 1017.8 hPa | 0 mm | - | 308 W/m² | - |
| 1777938037 | 17.22° C | 67% | 1017.7 hPa | 0 mm | - | 286 W/m² | - |
| 1777937732 | 17.22° C | 68% | 1017.8 hPa | 0 mm | - | 259 W/m² | - |
| 1777937429 | 17.22° C | 67% | 1017.6 hPa | 0 mm | - | 229 W/m² | - |
| 1777937126 | 17.78° C | 66% | 1017.6 hPa | 0 mm | - | 226 W/m² | - |
| 1777936824 | 17.78° C | 67% | 1017.7 hPa | 0 mm | - | 573 W/m² | - |
| 1777936520 | 17.78° C | 67% | 1017.8 hPa | 0 mm | - | 526 W/m² | - |
| 1777936216 | 18.33° C | 66% | 1017.8 hPa | 0 mm | - | 384 W/m² | - |
| 1777935913 | 19.44° C | 63% | 1017.9 hPa | 0 mm | - | 501 W/m² | - |
| 1777935612 | 18.33° C | 64% | 1017.9 hPa | 0 mm | - | 656 W/m² | - |
| 1777935308 | 18.33° C | 66% | 1017.8 hPa | 0 mm | - | 657 W/m² | - |
| 1777935005 | 18.89° C | 64% | 1018 hPa | 0 mm | - | 632 W/m² | - |
| 1777934701 | 18.89° C | 64% | 1018.1 hPa | 0 mm | - | 580 W/m² | - |
| 1777934399 | 18.89° C | 65% | 1018.1 hPa | 0 mm | - | 626 W/m² | - |
| 1777934095 | 18.33° C | 65% | 1018.2 hPa | 0 mm | - | 722 W/m² | - |
| 1777933791 | 18.33° C | 64% | 1018 hPa | 0 mm | - | 708 W/m² | - |
| 1777933489 | 17.78° C | 66% | 1018.1 hPa | 0 mm | - | 724 W/m² | - |
| 1777933186 | 17.78° C | 66% | 1018.4 hPa | 0 mm | - | 462 W/m² | - |
| 1777932883 | 17.78° C | 65% | 1018.2 hPa | 0 mm | - | 610 W/m² | - |
| 1777932580 | 17.78° C | 67% | 1018.4 hPa | 0 mm | - | 383 W/m² | - |
| 1777932276 | 17.78° C | 64% | 1018.3 hPa | 0 mm | - | 607 W/m² | - |
| 1777931974 | 17.78° C | 66% | 1018.2 hPa | 0 mm | - | 323 W/m² | - |
| 1777931670 | 18.33° C | 64% | 1018.4 hPa | 0 mm | - | 378 W/m² | - |
| 1777931367 | 18.89° C | 61% | 1018.4 hPa | 0 mm | - | 801 W/m² | - |
* Rain latest hour (hover to see other rain measurements)
** Current wind speed in m/s (hover to see current wind gust speed)